User: anonymous
Location: Unspecified
(0.0000°N, 0.0000°E)
Time: 05:49:00
(UTC+00:00)
Language:

SWISSCUBE - Orbit

View from above orbital plane
View from above orbital plane
View from above satellite
View from above satellite

Ground track
Ground track

The orbit data is extracted from the following two-line orbital elements,

1 35932U 09051B   14261.12919943  .00001034  00000-0  25291-3 0  4039
2 35932 098.3872 013.6222 0009119 098.4158 261.8072 14.54584606264407
Epoch (UTC): 18 September 2014 03:06:02
Eccentricity: 0.0009119
inclination: 98.3872°
perigee height: 704 km
apogee height: 717 km
right ascension of ascending node: 13.6222°
argument of perigee: 98.4158°
revolutions per day: 14.54584606
mean anomaly at epoch: 261.8072°
orbit number at epoch: 26440

The dashed part of the orbit path shows where the satellite is in the earth's shadow,  

DLR